Time,TemperatureF,DewpointF,PressureIn,WindDirection,WindDirectionDegrees,WindSpeedMPH,WindSpeedGustMPH,Humidity,HourlyPrecipIn,Conditions,Clouds,dailyrainin,SoftwareType,DateUTC
2013-06-15 00:05:00,47.1,46.0,30.04,WSW,245,4.0,-999.0,95,-99.99,,,0.00,weatherlink.com 1.10,2013-06-15 07:05:00,
2013-06-15 00:20:00,46.8,46.0,30.04,WSW,242,5.0,-999.0,96,-99.99,,,0.00,weatherlink.com 1.10,2013-06-15 07:20:00,
2013-06-15 00:40:00,46.9,46.0,30.03,WSW,242,6.0,-999.0,96,-99.99,,,0.00,weatherlink.com 1.10,2013-06-15 07:40:00,
2013-06-15 00:50:00,46.8,46.0,30.03,WSW,247,2.0,-999.0,96,-99.99,,,0.00,weatherlink.com 1.10,2013-06-15 07:50:00,
2013-06-15 01:05:00,46.8,46.0,30.02,WSW,248,6.0,-999.0,96,-99.99,,,0.00,weatherlink.com 1.10,2013-06-15 08:05:00,
2013-06-15 01:20:00,46.4,45.0,30.02,WSW,251,4.0,-999.0,96,-99.99,,,0.00,weatherlink.com 1.10,2013-06-15 08:20:00,
2013-06-15 01:40:00,46.1,45.0,30.01,WSW,258,6.0,-999.0,96,-99.99,,,0.00,weatherlink.com 1.10,2013-06-15 08:40:00,
2013-06-15 01:51:00,45.9,45.0,30.01,West,266,0.0,-999.0,96,-99.99,,,0.00,weatherlink.com 1.10,2013-06-15 08:51:00,
2013-06-15 02:06:00,45.9,45.0,30.00,WSW,250,4.0,-999.0,96,-99.99,,,0.00,weatherlink.com 1.10,2013-06-15 09:06:00,
2013-06-15 02:21:00,45.5,45.0,30.00,WSW,257,5.0,-999.0,96,-99.99,,,0.00,weatherlink.com 1.10,2013-06-15 09:21:00,
2013-06-15 02:40:00,45.3,45.0,30.00,WSW,250,4.0,-999.0,97,-99.99,,,0.00,weatherlink.com 1.10,2013-06-15 09:40:00,
2013-06-15 02:50:00,45.5,45.0,30.00,WSW,253,2.0,-999.0,97,-99.99,,,0.00,weatherlink.com 1.10,2013-06-15 09:50:00,
2013-06-15 03:05:00,46.4,46.0,30.00,WSW,253,4.0,-999.0,97,-99.99,,,0.00,weatherlink.com 1.10,2013-06-15 10:05:00,
2013-06-15 03:20:00,46.0,45.0,30.00,WSW,253,4.0,-999.0,97,-99.99,,,0.00,weatherlink.com 1.10,2013-06-15 10:20:00,
2013-06-15 03:40:00,45.5,45.0,29.99,WSW,254,3.0,-999.0,97,-99.99,,,0.00,weatherlink.com 1.10,2013-06-15 10:40:00,
2013-06-15 03:50:00,45.4,44.0,29.99,WSW,249,3.0,-999.0,96,-99.99,,,0.00,weatherlink.com 1.10,2013-06-15 10:50:00,
2013-06-15 04:05:00,45.0,44.0,29.99,WSW,250,4.0,-999.0,97,-99.99,,,0.00,weatherlink.com 1.10,2013-06-15 11:05:00,
2013-06-15 04:20:00,45.4,45.0,29.98,WSW,250,0.0,-999.0,97,-99.99,,,0.00,weatherlink.com 1.10,2013-06-15 11:20:00,
2013-06-15 04:41:00,45.7,45.0,29.98,WSW,250,0.0,-999.0,97,-99.99,,,0.00,weatherlink.com 1.10,2013-06-15 11:41:00,
2013-06-15 04:51:00,45.6,45.0,29.98,WSW,250,0.0,-999.0,97,-99.99,,,0.00,weatherlink.com 1.10,2013-06-15 11:51:00,
2013-06-15 05:06:00,46.8,46.0,29.98,WSW,250,2.0,-999.0,98,-99.99,,,0.00,weatherlink.com 1.10,2013-06-15 12:06:00,
2013-06-15 05:21:00,47.5,47.0,29.98,WSW,250,0.0,-999.0,97,-99.99,,,0.00,weatherlink.com 1.10,2013-06-15 12:21:00,
2013-06-15 05:41:00,46.9,46.0,29.98,WSW,250,0.0,-999.0,97,-99.99,,,0.00,weatherlink.com 1.10,2013-06-15 12:41:00,
2013-06-15 05:51:00,48.5,48.0,29.98,WSW,240,0.0,-999.0,98,-99.99,,,0.00,weatherlink.com 1.10,2013-06-15 12:51:00,
2013-06-15 06:06:00,47.9,47.0,29.98,WSW,240,0.0,-999.0,97,-99.99,,,0.00,weatherlink.com 1.10,2013-06-15 13:06:00,
2013-06-15 06:21:00,48.2,47.0,29.97,NE,52,0.0,-999.0,97,-99.99,,,0.00,weatherlink.com 1.10,2013-06-15 13:21:00,
2013-06-15 06:41:00,48.8,48.0,29.97,NE,36,3.0,-999.0,97,-99.99,,,0.00,weatherlink.com 1.10,2013-06-15 13:41:00,
2013-06-15 06:51:00,48.8,48.0,29.97,NE,55,0.0,-999.0,97,-99.99,,,0.00,weatherlink.com 1.10,2013-06-15 13:51:00,
2013-06-15 07:06:00,49.9,49.0,29.98,NNE,24,3.0,-999.0,96,-99.99,,,0.00,weatherlink.com 1.10,2013-06-15 14:06:00,
2013-06-15 07:21:00,50.3,49.0,29.97,NNE,24,0.0,-999.0,96,-99.99,,,0.00,weatherlink.com 1.10,2013-06-15 14:21:00,
2013-06-15 07:41:00,50.8,50.0,29.97,NNE,24,0.0,-999.0,95,-99.99,,,0.00,weatherlink.com 1.10,2013-06-15 14:41:00,
2013-06-15 07:51:00,50.8,50.0,29.97,NNE,25,0.0,-999.0,95,-99.99,,,0.00,weatherlink.com 1.10,2013-06-15 14:51:00,
2013-06-15 08:06:00,51.1,50.0,29.97,NNE,25,0.0,-999.0,95,-99.99,,,0.00,weatherlink.com 1.10,2013-06-15 15:06:00,
2013-06-15 08:21:00,51.8,51.0,29.96,NNE,25,0.0,-999.0,95,-99.99,,,0.00,weatherlink.com 1.10,2013-06-15 15:21:00,
2013-06-15 08:41:00,52.6,51.0,29.96,NNE,25,0.0,-999.0,93,-99.99,,,0.00,weatherlink.com 1.10,2013-06-15 15:41:00,
2013-06-15 08:51:00,54.0,52.0,29.96,NNE,25,0.0,-999.0,91,-99.99,,,0.00,weatherlink.com 1.10,2013-06-15 15:51:00,
2013-06-15 09:06:00,54.5,51.0,29.96,NNE,26,3.0,-999.0,89,-99.99,,,0.00,weatherlink.com 1.10,2013-06-15 16:06:00,
2013-06-15 09:21:00,55.8,52.0,29.96,NE,55,0.0,-999.0,88,-99.99,,,0.00,weatherlink.com 1.10,2013-06-15 16:21:00,
2013-06-15 09:41:00,57.5,53.0,29.95,North,11,2.0,-999.0,84,-99.99,,,0.00,weatherlink.com 1.10,2013-06-15 16:41:00,
2013-06-15 09:51:00,60.5,53.0,29.95,East,93,4.0,-999.0,76,-99.99,,,0.00,weatherlink.com 1.10,2013-06-15 16:51:00,
2013-06-15 10:06:00,62.1,51.0,29.95,SE,130,10.0,-999.0,68,-99.99,,,0.00,weatherlink.com 1.10,2013-06-15 17:06:00,
2013-06-15 10:21:00,62.6,51.0,29.95,SE,134,8.0,-999.0,67,-99.99,,,0.00,weatherlink.com 1.10,2013-06-15 17:21:00,
2013-06-15 10:41:00,63.2,52.0,29.95,ESE,113,4.0,-999.0,67,-99.99,,,0.00,weatherlink.com 1.10,2013-06-15 17:41:00,
2013-06-15 10:51:00,63.1,51.0,29.94,ESE,102,7.0,-999.0,66,-99.99,,,0.00,weatherlink.com 1.10,2013-06-15 17:51:00,
2013-06-15 11:06:00,63.2,52.0,29.94,ESE,120,1.0,-999.0,66,-99.99,,,0.00,weatherlink.com 1.10,2013-06-15 18:06:00,
2013-06-15 11:21:00,64.8,51.0,29.94,SE,132,5.0,-999.0,62,-99.99,,,0.00,weatherlink.com 1.10,2013-06-15 18:21:00,
2013-06-15 11:42:00,65.2,52.0,29.93,ENE,65,4.0,-999.0,62,-99.99,,,0.00,weatherlink.com 1.10,2013-06-15 18:42:00,
2013-06-15 11:52:00,62.7,51.0,29.93,ENE,58,4.0,-999.0,66,-99.99,,,0.00,weatherlink.com 1.10,2013-06-15 18:52:00,
2013-06-15 12:07:00,60.7,51.0,29.93,ENE,61,9.0,-999.0,70,-99.99,,,0.00,weatherlink.com 1.10,2013-06-15 19:07:00,
2013-06-15 12:22:00,59.0,51.0,29.93,East,89,5.0,-999.0,75,-99.99,,,0.00,weatherlink.com 1.10,2013-06-15 19:22:00,
2013-06-15 12:42:00,59.7,51.0,29.93,NE,51,5.0,-999.0,73,-99.99,,,0.00,weatherlink.com 1.10,2013-06-15 19:42:00,
2013-06-15 12:52:00,60.6,51.0,29.93,ESE,110,5.0,-999.0,71,-99.99,,,0.00,weatherlink.com 1.10,2013-06-15 19:52:00,
2013-06-15 13:07:00,59.9,51.0,29.93,NNE,30,12.0,-999.0,73,-99.99,,,0.00,weatherlink.com 1.10,2013-06-15 20:07:00,
2013-06-15 13:22:00,61.2,52.0,29.93,NNE,15,11.0,-999.0,73,-99.99,,,0.00,weatherlink.com 1.10,2013-06-15 20:22:00,
2013-06-15 13:41:00,60.1,52.0,29.93,ENE,62,0.0,-999.0,75,-99.99,,,0.00,weatherlink.com 1.10,2013-06-15 20:41:00,
2013-06-15 13:51:00,61.6,51.0,29.93,NNW,346,2.0,-999.0,69,-99.99,,,0.00,weatherlink.com 1.10,2013-06-15 20:51:00,
2013-06-15 14:06:00,61.2,51.0,29.93,ENE,69,5.0,-999.0,70,-99.99,,,0.00,weatherlink.com 1.10,2013-06-15 21:06:00,
2013-06-15 14:21:00,60.2,52.0,29.93,North,5,7.0,-999.0,73,-99.99,,,0.00,weatherlink.com 1.10,2013-06-15 21:21:00,
2013-06-15 14:41:00,60.4,52.0,29.93,ENE,71,3.0,-999.0,74,-99.99,,,0.00,weatherlink.com 1.10,2013-06-15 21:41:00,
2013-06-15 14:51:00,60.0,52.0,29.93,NNE,32,3.0,-999.0,75,-99.99,,,0.00,weatherlink.com 1.10,2013-06-15 21:51:00,
2013-06-15 15:06:00,59.5,52.0,29.93,NE,47,4.0,-999.0,75,-99.99,,,0.00,weatherlink.com 1.10,2013-06-15 22:06:00,
2013-06-15 15:21:00,60.1,52.0,29.93,NE,50,3.0,-999.0,74,-99.99,,,0.00,weatherlink.com 1.10,2013-06-15 22:21:00,
2013-06-15 15:42:00,60.5,51.0,29.92,ENE,63,4.0,-999.0,72,-99.99,,,0.00,weatherlink.com 1.10,2013-06-15 22:42:00,
2013-06-15 15:52:00,60.9,52.0,29.92,ENE,67,0.0,-999.0,73,-99.99,,,0.00,weatherlink.com 1.10,2013-06-15 22:52:00,
2013-06-15 16:07:00,61.4,52.0,29.92,ENE,71,4.0,-999.0,72,-99.99,,,0.00,weatherlink.com 1.10,2013-06-15 23:07:00,
2013-06-15 16:22:00,60.7,52.0,29.92,ENE,65,2.0,-999.0,73,-99.99,,,0.00,weatherlink.com 1.10,2013-06-15 23:22:00,
2013-06-15 16:43:00,59.1,52.0,29.92,NE,44,4.0,-999.0,77,-99.99,,,0.00,weatherlink.com 1.10,2013-06-15 23:43:00,
2013-06-15 16:52:00,59.7,52.0,29.92,NE,42,2.0,-999.0,77,-99.99,,,0.00,weatherlink.com 1.10,2013-06-15 23:52:00,
2013-06-15 17:07:00,60.4,52.0,29.92,NE,42,0.0,-999.0,75,-99.99,,,0.00,weatherlink.com 1.10,2013-06-16 00:07:00,
2013-06-15 17:22:00,59.7,52.0,29.92,NE,43,1.0,-999.0,77,-99.99,,,0.00,weatherlink.com 1.10,2013-06-16 00:22:00,
2013-06-15 17:42:00,60.1,53.0,29.92,NE,43,1.0,-999.0,76,-99.99,,,0.00,weatherlink.com 1.10,2013-06-16 00:42:00,
2013-06-15 17:52:00,61.2,53.0,29.92,NE,43,0.0,-999.0,74,-99.99,,,0.00,weatherlink.com 1.10,2013-06-16 00:52:00,
2013-06-15 18:07:00,62.5,53.0,29.92,NE,43,0.0,-999.0,70,-99.99,,,0.00,weatherlink.com 1.10,2013-06-16 01:07:00,
2013-06-15 18:22:00,63.0,53.0,29.92,NE,43,0.0,-999.0,69,-99.99,,,0.00,weatherlink.com 1.10,2013-06-16 01:22:00,
2013-06-15 18:41:00,62.9,53.0,29.92,NE,43,0.0,-999.0,69,-99.99,,,0.00,weatherlink.com 1.10,2013-06-16 01:41:00,
2013-06-15 18:51:00,62.0,51.0,29.92,NE,43,0.0,-999.0,67,-99.99,,,0.00,weatherlink.com 1.10,2013-06-16 01:51:00,
2013-06-15 19:06:00,62.9,52.0,29.92,NE,43,0.0,-999.0,68,-99.99,,,0.00,weatherlink.com 1.10,2013-06-16 02:06:00,
2013-06-15 19:21:00,62.7,51.0,29.92,NE,43,0.0,-999.0,66,-99.99,,,0.00,weatherlink.com 1.10,2013-06-16 02:21:00,
2013-06-15 19:41:00,61.8,51.0,29.92,NE,43,0.0,-999.0,69,-99.99,,,0.00,weatherlink.com 1.10,2013-06-16 02:41:00,
2013-06-15 19:51:00,62.1,53.0,29.93,NE,43,0.0,-999.0,72,-99.99,,,0.00,weatherlink.com 1.10,2013-06-16 02:51:00,
2013-06-15 20:06:00,62.0,53.0,29.93,NE,43,0.0,-999.0,72,-99.99,,,0.00,weatherlink.com 1.10,2013-06-16 03:06:00,
2013-06-15 20:21:00,61.7,52.0,29.93,NE,43,0.0,-999.0,71,-99.99,,,0.00,weatherlink.com 1.10,2013-06-16 03:21:00,
2013-06-15 20:42:00,60.4,53.0,29.94,South,171,0.0,-999.0,76,-99.99,,,0.00,weatherlink.com 1.10,2013-06-16 03:42:00,
2013-06-15 20:52:00,59.1,52.0,29.94,South,171,0.0,-999.0,77,-99.99,,,0.00,weatherlink.com 1.10,2013-06-16 03:52:00,
2013-06-15 21:07:00,59.0,53.0,29.94,South,171,0.0,-999.0,79,-99.99,,,0.00,weatherlink.com 1.10,2013-06-16 04:07:00,
2013-06-15 21:22:00,57.8,52.0,29.94,South,171,0.0,-999.0,80,-99.99,,,0.00,weatherlink.com 1.10,2013-06-16 04:22:00,
2013-06-15 21:42:00,56.6,52.0,29.94,SSE,160,0.0,-999.0,83,-99.99,,,0.00,weatherlink.com 1.10,2013-06-16 04:42:00,
2013-06-15 21:52:00,55.5,51.0,29.95,SSE,160,0.0,-999.0,85,-99.99,,,0.00,weatherlink.com 1.10,2013-06-16 04:52:00,
2013-06-15 22:07:00,54.9,51.0,29.95,SE,132,3.0,-999.0,87,-99.99,,,0.00,weatherlink.com 1.10,2013-06-16 05:07:00,
2013-06-15 22:22:00,54.5,51.0,29.96,SE,131,0.0,-999.0,88,-99.99,,,0.00,weatherlink.com 1.10,2013-06-16 05:22:00,
2013-06-15 22:42:00,54.5,51.0,29.96,SE,131,0.0,-999.0,89,-99.99,,,0.00,weatherlink.com 1.10,2013-06-16 05:42:00,
2013-06-15 22:52:00,54.4,52.0,29.96,SE,131,0.0,-999.0,90,-99.99,,,0.00,weatherlink.com 1.10,2013-06-16 05:52:00,
2013-06-15 23:07:00,54.5,52.0,29.96,SE,131,0.0,-999.0,91,-99.99,,,0.00,weatherlink.com 1.10,2013-06-16 06:07:00,
2013-06-15 23:22:00,54.4,52.0,29.96,SE,131,0.0,-999.0,90,-99.99,,,0.00,weatherlink.com 1.10,2013-06-16 06:22:00,
2013-06-15 23:42:00,54.2,52.0,29.96,SE,131,2.0,-999.0,91,-99.99,,,0.00,weatherlink.com 1.10,2013-06-16 06:42:00,
2013-06-15 23:52:00,55.3,53.0,29.96,West,279,6.0,-999.0,91,-99.99,,,0.00,weatherlink.com 1.10,2013-06-16 06:52:00,